This is the latest recevied weather packets stored in our database for station/object KB0BS-13. If no packets are shown the sender has not sent any weather packets the latest 1 day(s).
| Time | Temp. | Humidity | Pressure | Rain* | Wind** | Luminosity | Snow |
|---|---|---|---|---|---|---|---|
| 1778100170 | 4.44° C | 61% | 1013.2 hPa | 0 mm | - | 167 W/m² | - |
| 1778099868 | 4.44° C | 63% | 1013.2 hPa | 0 mm | - | 163 W/m² | - |
| 1778099565 | 4.44° C | 61% | 1013.1 hPa | 0 mm | - | 164 W/m² | - |
| 1778099262 | 4.44° C | 61% | 1013.3 hPa | 0 mm | - | 159 W/m² | - |
| 1778098352 | 5° C | 61% | 1013.2 hPa | 0 mm | - | 148 W/m² | - |
| 1778097746 | 4.44° C | 61% | 1013.2 hPa | 0 mm | - | 158 W/m² | - |
| 1778097442 | 4.44° C | 62% | 1013.2 hPa | 0 mm | - | 161 W/m² | - |
| 1778097139 | 4.44° C | 61% | 1013.1 hPa | 0 mm | - | 153 W/m² | - |
| 1778096836 | 5° C | 62% | 1013.3 hPa | 0 mm | - | 153 W/m² | - |
| 1778096231 | 5° C | 56% | 1013.1 hPa | 0 mm | - | 185 W/m² | - |
| 1778095624 | 5° C | 56% | 1013.1 hPa | 0 mm | - | 215 W/m² | - |
| 1778093198 | 5° C | 58% | 1013.1 hPa | 0 mm | - | 218 W/m² | - |
| 1778092592 | 5° C | 63% | 1013 hPa | 0 mm | - | 236 W/m² | - |
| 1778091682 | 5° C | 60% | 1013 hPa | 0 mm | - | 293 W/m² | - |
| 1778091077 | 5° C | 61% | 1013 hPa | 0 mm | - | 195 W/m² | - |
| 1778088652 | 4.44° C | 60% | 1013.1 hPa | 0 mm | - | 230 W/m² | - |
| 1778087743 | 4.44° C | 60% | 1013.4 hPa | 0 mm | - | 239 W/m² | - |
| 1778085618 | 4.44° C | 61% | 1013.3 hPa | 0 mm | - | 198 W/m² | - |
| 1778085314 | 4.44° C | 61% | 1013.5 hPa | 0 mm | - | 193 W/m² | - |
| 1778085010 | 4.44° C | 62% | 1013.4 hPa | 0 mm | - | 194 W/m² | - |
| 1778084101 | 4.44° C | 62% | 1013.3 hPa | 0 mm | - | 279 W/m² | - |
| 1778083798 | 4.44° C | 64% | 1013.3 hPa | 0 mm | - | 261 W/m² | - |
| 1778081474 | 4.44° C | 64% | 1013.1 hPa | 0 mm | - | 257 W/m² | - |
| 1778081171 | 3.89° C | 63% | 1012.9 hPa | 0 mm | - | 253 W/m² | - |
| 1778080567 | 3.89° C | 66% | 1013 hPa | 0 mm | - | 214 W/m² | - |
* Rain latest hour (hover to see other rain measurements)
** Current wind speed in m/s (hover to see current wind gust speed)